This demonstration page uses our WeatherBlox Daily Observations layout. Learn more.

Left ArrowRight Arrow

31.31129, -92.44514

Hourly Observations for August 30, 2022

Temp ( °F °C ) Dew Point ( °F °C ) Humidity (%) Winds ( mph kmh ) Pressure ( in mb ) Visibility ( mi km ) Precip ( " mm )
12:53 am 00:53 Clear 77 25 75 23.9 94 94 NNW 5 7 29.98 1015 9 14 0.00 0.00
1:53 am 01:53 Clear 77 25 75 23.9 94 94 Calm 29.98 1015 7 11 0.00 0.00
2:53 am 02:53 Clear 76 24.4 74 23.3 94 94 Calm 29.97 1015 8 13 0.00 0.00
3:53 am 03:53 Clear with Mist and Fog 76 24.4 73 22.8 91 91 Calm 29.98 1015 6 10 0.00 0.00
4:11 am 04:11 Mostly Clear with Mist and Fog 76 24.4 73 22.8 91 91 Calm 29.98 1015 2 3 0.00 0.00
4:20 am 04:20 Clear 76 24.4 73 22.8 91 91 Calm 29.98 1015 7 11 0.00 0.00
4:53 am 04:53 Clear 76 24.4 73 22.8 91 91 Calm 29.99 1016 8 13 0.00 0.00
5:38 am 05:38 Partly Cloudy with Mist and Fog 76 24.4 73 22.8 91 91 Calm 29.99 1016 6 10 0.00 0.00
5:53 am 05:53 Mostly Cloudy with Mist and Fog 75 23.9 73 22.8 94 94 Calm 30.00 1016 5 8 0.00 0.00
6:05 am 06:05 Cloudy with Mist and Fog 75 23.9 73 22.8 94 94 Calm 29.99 1016 2 3 0.00 0.00
6:27 am 06:27 Cloudy with Mist and Fog 76 24.4 74 23.3 94 94 Calm 30.00 1016 3 5 0.00 0.00
6:49 am 06:49 Partly Cloudy 75 24 73 23 94 94 Calm 30.00 1016 9 14 0.00 0.00
6:53 am 06:53 Mostly Sunny 76 24.4 74 23.3 94 94 Calm 30.01 1016 10 16 0.00 0.00
7:53 am 07:53 Sunny 77 25 75 23.9 94 94 Calm 30.02 1017 7 11 0.00 0.00
8:53 am 08:53 Sunny 79 26.1 76 24.4 90 90 Calm 30.02 1017 9 14 0.00 0.00
9:53 am 09:53 Sunny 83 28.3 78 25.6 85 85 W 3 6 30.02 1017 9 14 0.00 0.00
10:53 am 10:53 Sunny 87 30.6 76 24.4 70 70 Calm 30.03 1017 10 16 0.00 0.00
11:53 am 11:53 Sunny 90 32.2 74 23.3 59 59 Calm 30.02 1017 10 16 0.01 0.13
12:53 pm 12:53 Sunny 92 33.3 74 23.3 56 56 SW 6 9 30.00 1016 10 16 0.00 0.00
1:53 pm 13:53 Mostly Cloudy 93 33.9 75 23.9 56 56 VRB 5 7 29.98 1015 10 16 0.00 0.00
2:53 pm 14:53 Partly Cloudy 93 33.9 74 23.3 54 54 WSW 5 7 29.96 1015 10 16 0.00 0.00
3:53 pm 15:53 Sunny 92 33.3 75 23.9 58 58 E 5 7 29.94 1014 10 16 0.00 0.00
4:53 pm 16:53 Sunny 92 33.3 74 23.3 56 56 SSE 3 6 29.94 1014 10 16 0.00 0.00
5:53 pm 17:53 Sunny 93 33.9 74 23.3 54 54 N 7 11 29.96 1015 10 16 0.00 0.00
6:11 pm 18:11 Partly Cloudy with Nearby Thunderstorms 93 33.9 74 23.3 54 54 N 5 7 29.95 1014 10 16 0.00 0.00
6:25 pm 18:25 Mostly Cloudy with Thunderstorms 90 32.2 75 23.9 62 62 ENE 9 15 29.97 1015 10 16 0.00 0.00
6:53 pm 18:53 Partly Cloudy with Thunderstorms 85 29.4 74 23.3 70 70 NE 12 19 29.99 1016 10 16 0.00 0.00
7:34 pm 19:34 Mostly Cloudy with Nearby Thunderstorms 83 28.3 70 21.1 65 65 SSW 3 6 29.98 1015 10 16 0.00 0.00
7:53 pm 19:53 Mostly Clear with Nearby Thunderstorms 81 27.2 70 21.1 69 69 SSE 7 11 29.99 1016 10 16 0.00 0.00
8:33 pm 20:33 Mostly Cloudy 82 27.8 73 22.8 74 74 Calm 30.02 1016 10 16 0.00 0.00
8:43 pm 20:43 Mostly Cloudy with Thunderstorms 82 27.8 73 22.8 74 74 ENE 3 6 30.04 1017 10 16 0.00 0.00
8:53 pm 20:53 Mostly Cloudy with Thunderstorms 81 27.2 72 22.2 74 74 E 3 6 30.04 1017 10 16 0.01 0.13
9:21 pm 21:21 Cloudy 80 26.7 72 22.2 76 76 ESE 10 17 30.05 1017 10 16 0.01 0.13
9:32 pm 21:32 Mostly Cloudy with Nearby Thunderstorms 80 26.7 72 22.2 76 76 ESE 8 13 30.06 1018 10 16 0.01 0.13
9:53 pm 21:53 Mostly Cloudy with Nearby Thunderstorms 78 25.6 75 23.9 90 90 SE 15 24 30.07 1018 9 14 0.01 0.13
10:15 pm 22:15 Mostly Clear with Light Rain 78 25.6 73 22.8 85 85 SSE 8 13 30.03 1017 10 16 0.01 0.13
10:53 pm 22:53 Mostly Clear 78 25.6 73 22.8 85 85 W 6 9 30.02 1017 10 16 0.01 0.13
11:53 pm 23:53 Clear 77 25 73 22.8 88 88 N 3 6 30.01 1016 10 16 0.00 0.00

Powered by AerisWeather